Printer-friendly version
Follow the MPC on Twitter Follow the MPC on Facebook The MPC blog
Minor Planet Center

MPEC 2007-K35 : 2007 KV2

The following Minor Planet Electronic Circular may be linked-to from your own Web pages, but must not otherwise be redistributed electronically.

A form allowing access to any MPEC is at the bottom of this page.


Read MPEC 2007-K34 Read MPEC 2007-K36


M.P.E.C. 2007-K35                                Issued 2007 May 23, 16:31 UT

     The Minor Planet Electronic Circulars contain information on unusual
         minor planets and routine data on comets.  They are published
   on behalf of Commission 20 of the International Astronomical Union by the
          Minor Planet Center, Smithsonian Astrophysical Observatory,
                          Cambridge, MA 02138, U.S.A.

             Prepared using the Tamkin Foundation Computer Network

                              MPC@CFA.HARVARD.EDU
          URL http://www.cfa.harvard.edu/iau/mpc.html  ISSN 1523-6714

                                   2007 KV2

Observations:
     K07K02V* C2007 05 21.35472 15 05 32.35 +01 02 27.7          19.2 V EK035703
     K07K02V  C2007 05 21.36481 15 05 34.15 +01 03 46.0          20.4 V EK035703
     K07K02V  C2007 05 21.37490 15 05 35.91 +01 05 01.7          19.5 V EK035703
     K07K02V  C2007 05 21.38497 15 05 37.82 +01 06 19.6          19.9 V EK035703
     K07K02V  C2007 05 22.22516715 08 37.66 +02 42 52.7          19.3 V EK035H55
     K07K02V  C2007 05 22.22843015 08 38.09 +02 43 11.8          19.5 V EK035H55
     K07K02V  C2007 05 22.23245415 08 38.64 +02 43 37.6          19.3 V EK035H55
     K07K02V  C2007 05 22.26959 15 08 46.93 +02 47 42.8          19.7 V EK035G96
     K07K02V  C2007 05 22.27596 15 08 47.76 +02 48 22.4          20.1 V EK035G96
     K07K02V  C2007 05 22.28229 15 08 48.62 +02 49 00.8          19.9 V EK035G96
     K07K02V  C2007 05 22.28870 15 08 49.45 +02 49 40.8          20.0 V EK035G96
     K07K02V  C2007 05 23.07029 15 11 01.91 +04 02 28.3                 EK035J95
     K07K02V  C2007 05 23.07350 15 11 02.37 +04 02 45.2          20.1 R EK035J95

Observer details:
703 Catalina Sky Survey.  Observer A. R. Gibbs.  Measurers E. C. Beshore,
    A. Boattini, G. J. Garradd, A. R. Gibbs, A. D. Grauer, R. E. Hill,
    R. A. Kowalski, S. M. Larson, R. H. McNaught.  0.68-m Schmidt + CCD.
G96 Mt. Lemmon Survey.  Observer S. M. Larson.  Measurers E. C. Beshore,
    A. Boattini, G. J. Garradd, A. R. Gibbs, A. D. Grauer, R. E. Hill,
    R. A. Kowalski, S. M. Larson, R. H. McNaught.  1.5-m reflector + CCD.
J95 Great Shefford.  Observer P. Birtwhistle.  0.40-m f/6.0 Schmidt-Cassegrain
    + CCD.
H55 Astronomical Research Observatory, Charleston.  Observer R. Holmes.
    0.81-m f/4.0 astrograph + CCD.

Orbital elements:
2007 KV2                                                 Earth MOID = 0.0078 AU
Epoch 2007 Apr. 10.0 TT = JDT 2454200.5                 MPC
M  28.52463              (2000.0)            P               Q
n   0.83665300     Peri.  264.30409     -0.74160596     -0.64185525
a   1.1154218      Node   235.59196     +0.66997007     -0.69388639
e   0.3128930      Incl.   13.67464     +0.03406931     -0.32641003
P   1.18           H   24.8           G   0.15           U   8
Residuals in seconds of arc
070521 703  0.0   0.1+    070522 H55  0.3+  0.3-    070522 G96  0.3-  0.2-
070521 703  0.0   0.8+    070522 H55  0.1+  0.5+    070523 J95  0.3-  0.2-
070521 703  0.8-  0.8-    070522 G96  0.1+  0.4-    070523 J95  0.3+  0.2+
070521 703  0.4+  0.1+    070522 G96  0.2-  0.2-
070522 H55  0.7+  1.0+    070522 G96  0.1+  0.8-

Ephemeris:
2007 KV2                 a,e,i = 1.12, 0.31, 14                  q = 0.7664
Date    TT    R. A. (2000) Decl.     Delta      r     Elong.  Phase     V
2007 05 20    14 59.46   -02 24.7    0.0435   1.053   159.3    19.9    19.1
2007 05 21    15 04.20   +00 16.3    0.0497   1.058   156.9    22.0    19.5
2007 05 22    15 07.91   +02 20.3    0.0560   1.063   154.8    23.9    19.8
2007 05 23    15 10.90   +03 58.1    0.0625   1.068   153.1    25.4    20.1
2007 05 24    15 13.37   +05 16.5    0.0690   1.074   151.6    26.7    20.4
2007 05 25    15 15.45   +06 20.5    0.0755   1.079   150.2    27.8    20.6
2007 05 26    15 17.24   +07 13.2    0.0821   1.084   149.0    28.7    20.8
2007 05 27    15 18.79   +07 57.0    0.0888   1.089   147.9    29.6    21.0
2007 05 28    15 20.17   +08 33.7    0.0955   1.095   147.0    30.3    21.2
2007 05 29    15 21.40   +09 04.6    0.102    1.100   146.1    31.0    21.4
2007 05 30    15 22.52   +09 30.7    0.109    1.105   145.2    31.6    21.5
2007 05 31    15 23.54   +09 52.7    0.116    1.110   144.4    32.1    21.7
2007 06 01    15 24.48   +10 11.3    0.123    1.115   143.6    32.6    21.9
2007 06 02    15 25.36   +10 27.0    0.130    1.120   142.9    33.1    22.0
2007 06 03    15 26.18   +10 40.0    0.137    1.125   142.2    33.5    22.1
2007 06 04    15 26.97   +10 50.9    0.143    1.130   141.6    33.9    22.3
2007 06 05    15 27.72   +10 59.8    0.150    1.135   140.9    34.3    22.4
2007 06 06    15 28.44   +11 06.9    0.157    1.140   140.3    34.6    22.5
2007 06 07    15 29.13   +11 12.4    0.165    1.145   139.7    35.0    22.6
2007 06 08    15 29.81   +11 16.6    0.172    1.150   139.1    35.3    22.7
2007 06 09    15 30.48   +11 19.4    0.179    1.155   138.5    35.6    22.8

Timothy B. Spahr             (C) Copyright 2007 MPC           M.P.E.C. 2007-K35

Read MPEC 2007-K34 Read MPEC 2007-K36


MPEC number:

Enter an MPEC number in one of the following forms:

  • 1997-B01 (the full form)
  • J97B01 (the packed version of the full form)
  • B01 (the abbreviated form)

Valid HTML 4.01!